When you browse on this site, cookies collect data to enhance your experience and personalize the content and advertising you see.
Visit our Privacy Policy to learn more. By continuing to use the site, you agree to this use of cookies and data.
  • In Spain
  • List of Countries
  • For 7 days
  • Water Temperature
  • Weather Map
  • Weather Widgets
  • user-avatar
    Login

    Hourly Weather Escaldes-Engordany

    Today, 23 January, Thursday

    Time Temperature Precipitation Wind Pressure Humidity
    00:00 +4°C° 0 mm 1 mps 639 mmHg 98%
    01:00 +4°C° 3.2 mm 1 mps 638 mmHg 98%
    02:00 +3°C° 3.2 mm 2 mps 638 mmHg 98%
    03:00 +2°C° 3.2 mm 2 mps 637 mmHg 98%
    04:00 +2°C° 2.2 mm 2 mps 637 mmHg 98%
    05:00 +3°C° 2.2 mm 2 mps 637 mmHg 98%
    06:00 +3°C° 0 mm 1 mps 638 mmHg 98%
    07:00 +3°C° 3.9 mm 1 mps 638 mmHg 98%
    08:00 +2°C° 3.9 mm 2 mps 638 mmHg 98%
    09:00 +2°C° 3.9 mm 2 mps 638 mmHg 98%
    10:00 +2°C° 1 mm 2 mps 638 mmHg 97%
    11:00 +2°C° 1 mm 2 mps 638 mmHg 96%
    12:00 +3°C° 1 mm 2 mps 639 mmHg 96%
    13:00 +3°C° 1.2 mm 2 mps 638 mmHg 96%
    14:00 +2°C° 1.2 mm 2 mps 638 mmHg 97%
    15:00 +2°C° 1.2 mm 2 mps 638 mmHg 97%
    16:00 +2°C° 0.1 mm 2 mps 638 mmHg 97%
    17:00 +1°C° 0.1 mm 2 mps 638 mmHg 96%
    18:00 +2°C° 0.1 mm 1 mps 638 mmHg 96%
    19:00 -1°C° 0 mm 2 mps 638 mmHg 95%
    20:00 -1°C° 0 mm 2 mps 638 mmHg 94%
    21:00 -2°C° 0 mm 2 mps 638 mmHg 93%
    22:00 -2°C° 0 mm 2 mps 638 mmHg 90%
    23:00 -3°C° 0 mm 2 mps 638 mmHg 87%

    Tomorrow, 24 January, Friday

    Time Temperature Precipitation Wind Pressure Humidity
    00:00 -3°C° 0 mm 2 mps 638 mmHg 84%
    01:00 -3°C° 0 mm 2 mps 637 mmHg 83%
    02:00 -4°C° 0 mm 2 mps 637 mmHg 82%
    03:00 -4°C° 0 mm 2 mps 637 mmHg 81%
    04:00 -4°C° 0 mm 2 mps 637 mmHg 81%
    05:00 -4°C° 0 mm 2 mps 637 mmHg 80%
    06:00 -4°C° 0 mm 2 mps 637 mmHg 80%
    07:00 -1°C° 0 mm 1 mps 637 mmHg 80%
    08:00 +1°C° 0 mm 1 mps 638 mmHg 80%
    09:00 +2°C° 0 mm 1 mps 638 mmHg 80%
    10:00 +3°C° 0 mm 1 mps 638 mmHg 81%
    11:00 +4°C° 0 mm 1 mps 639 mmHg 83%
    12:00 +5°C° 0 mm 1 mps 639 mmHg 84%
    13:00 +5°C° 0 mm 1 mps 638 mmHg 85%
    14:00 +5°C° 0 mm 1 mps 638 mmHg 86%
    15:00 +4°C° 0 mm 1 mps 638 mmHg 88%
    16:00 +3°C° 0 mm 1 mps 637 mmHg 88%
    17:00 +1°C° 0 mm 1 mps 637 mmHg 88%
    18:00 -1°C° 0 mm 1 mps 636 mmHg 88%
    19:00 -1°C° 0 mm 1 mps 636 mmHg 88%
    20:00 -1°C° 0 mm 1 mps 637 mmHg 87%
    21:00 -1°C° 0 mm 1 mps 637 mmHg 87%
    22:00 -1°C° 0 mm 1 mps 637 mmHg 86%
    23:00 -1°C° 0 mm 1 mps 637 mmHg 84%

    Day after tomorrow, 25 January, Saturday

    Time Temperature Precipitation Wind Pressure Humidity
    00:00 -3°C° 0 mm 2 mps 637 mmHg 83%
    01:00 -3°C° 0 mm 2 mps 636 mmHg 83%
    02:00 -3°C° 0 mm 2 mps 636 mmHg 82%
    03:00 -2°C° 0 mm 2 mps 636 mmHg 82%
    04:00 0°C° 0 mm 1 mps 636 mmHg 83%
    05:00 0°C° 0 mm 1 mps 636 mmHg 84%
    06:00 -1°C° 0 mm 1 mps 636 mmHg 84%
    07:00 0°C° 0 mm 1 mps 636 mmHg 85%
    08:00 +1°C° 0 mm 1 mps 637 mmHg 85%
    09:00 +2°C° 0 mm 1 mps 637 mmHg 86%
    10:00 +3°C° 0 mm 1 mps 637 mmHg 86%
    11:00 +4°C° 0 mm 1 mps 637 mmHg 87%
    12:00 +5°C° 0 mm 1 mps 637 mmHg 88%
    13:00 +4°C° 0.2 mm 1 mps 637 mmHg 89%
    14:00 +4°C° 0.2 mm 1 mps 636 mmHg 91%
    15:00 +4°C° 0.2 mm 1 mps 636 mmHg 93%
    16:00 +3°C° 0.2 mm 1 mps 636 mmHg 94%
    17:00 +3°C° 0.2 mm 1 mps 636 mmHg 95%
    18:00 +2°C° 0.2 mm 1 mps 636 mmHg 96%
    19:00 +2°C° 0.1 mm 1 mps 636 mmHg 96%
    20:00 +2°C° 0.1 mm 1 mps 636 mmHg 96%
    21:00 +2°C° 0.1 mm 1 mps 636 mmHg 96%
    22:00 +2°C° 0 mm 1 mps 636 mmHg 96%
    23:00 +2°C° 0 mm 1 mps 636 mmHg 96%

    26 January, Sunday

    Time Temperature Precipitation Wind Pressure Humidity
    00:00 +2°C° 0 mm 1 mps 636 mmHg 96%
    01:00 +1°C° 0 mm 1 mps 636 mmHg 96%
    02:00 +1°C° 0 mm 1 mps 636 mmHg 95%
    03:00 +1°C° 0 mm 1 mps 636 mmHg 95%
    04:00 0°C° 0 mm 1 mps 636 mmHg 94%
    05:00 0°C° 0 mm 1 mps 635 mmHg 93%
    06:00 -1°C° 0 mm 1 mps 635 mmHg 92%
    07:00 0°C° 0 mm 1 mps 636 mmHg 92%
    08:00 +1°C° 0 mm 1 mps 637 mmHg 92%
    09:00 +2°C° 0 mm 1 mps 638 mmHg 91%
    10:00 +3°C° 0 mm 1 mps 638 mmHg 91%
    11:00 +3°C° 0 mm 0 mps 638 mmHg 90%
    12:00 +3°C° 0 mm 0 mps 639 mmHg 90%
    13:00 +3°C° 0.1 mm 0 mps 639 mmHg 91%
    14:00 +3°C° 0.1 mm 0 mps 638 mmHg 91%
    15:00 +3°C° 0.1 mm 0 mps 638 mmHg 92%
    16:00 +3°C° 0 mm 1 mps 638 mmHg 92%
    17:00 +2°C° 0 mm 1 mps 638 mmHg 93%
    18:00 0°C° 0 mm 1 mps 638 mmHg 93%
    19:00 0°C° 0 mm 1 mps 638 mmHg 91%
    20:00 -1°C° 0 mm 1 mps 638 mmHg 89%
    21:00 -1°C° 0 mm 1 mps 638 mmHg 86%
    22:00 -1°C° 0 mm 1 mps 638 mmHg 86%
    23:00 -1°C° 0 mm 1 mps 638 mmHg 86%

    27 January, Monday

    Time Temperature Precipitation Wind Pressure Humidity
    00:00 -1°C° 0 mm 1 mps 638 mmHg 85%
    01:00 -1°C° 0 mm 1 mps 638 mmHg 84%
    02:00 -1°C° 0 mm 1 mps 637 mmHg 82%
    03:00 -1°C° 0 mm 1 mps 637 mmHg 81%
    04:00 -2°C° 0 mm 1 mps 637 mmHg 77%
    05:00 -2°C° 0 mm 1 mps 637 mmHg 73%
    06:00 -2°C° 0 mm 1 mps 637 mmHg 70%
    07:00 0°C° 0 mm 1 mps 638 mmHg 70%
    08:00 +1°C° 0 mm 1 mps 639 mmHg 70%
    09:00 +2°C° 0 mm 1 mps 639 mmHg 70%
    10:00 +3°C° 0 mm 1 mps 639 mmHg 73%
    11:00 +4°C° 0 mm 1 mps 639 mmHg 76%
    12:00 +4°C° 0 mm 2 mps 639 mmHg 79%
    13:00 +4°C° 0 mm 2 mps 639 mmHg 82%
    14:00 +4°C° 0 mm 2 mps 638 mmHg 85%
    15:00 +4°C° 0 mm 2 mps 638 mmHg 88%
    16:00 +3°C° 0 mm 2 mps 638 mmHg 90%
    17:00 +2°C° 0 mm 2 mps 637 mmHg 91%
    18:00 -1°C° 0 mm 2 mps 637 mmHg 93%
    19:00 -1°C° 0 mm 2 mps 637 mmHg 93%
    20:00 -1°C° 0 mm 2 mps 637 mmHg 93%
    21:00 -1°C° 0 mm 2 mps 637 mmHg 92%
    22:00 +1°C° 0 mm 1 mps 637 mmHg 92%
    23:00 +1°C° 0 mm 1 mps 637 mmHg 91%

    28 January, Tuesday

    Time Temperature Precipitation Wind Pressure Humidity
    00:00 +1°C° 0 mm 1 mps 637 mmHg 90%
    01:00 +1°C° 0 mm 1 mps 637 mmHg 89%
    02:00 +2°C° 0 mm 1 mps 636 mmHg 89%
    03:00 +2°C° 0 mm 1 mps 636 mmHg 88%
    04:00 +2°C° 0 mm 1 mps 636 mmHg 88%
    05:00 +2°C° 0 mm 1 mps 636 mmHg 87%
    06:00 +2°C° 0 mm 1 mps 636 mmHg 86%
    07:00 +3°C° 0 mm 1 mps 636 mmHg 87%
    08:00 +4°C° 0 mm 1 mps 637 mmHg 88%
    09:00 +5°C° 0 mm 1 mps 637 mmHg 89%
    10:00 +5°C° 0 mm 1 mps 637 mmHg 90%
    11:00 +6°C° 0 mm 1 mps 637 mmHg 91%
    12:00 +5°C° 0 mm 2 mps 638 mmHg 93%
    13:00 +5°C° 0 mm 2 mps 637 mmHg 93%
    14:00 +5°C° 0 mm 2 mps 637 mmHg 94%
    15:00 +4°C° 0 mm 2 mps 636 mmHg 95%
    16:00 +4°C° 0 mm 2 mps 636 mmHg 95%
    17:00 +4°C° 0 mm 1 mps 636 mmHg 96%
    18:00 +3°C° 0 mm 1 mps 636 mmHg 96%
    19:00 +3°C° 0 mm 1 mps 636 mmHg 96%
    20:00 +3°C° 0 mm 1 mps 636 mmHg 96%
    21:00 +2°C° 0 mm 2 mps 636 mmHg 96%
    22:00 +3°C° 0 mm 1 mps 635 mmHg 96%
    23:00 +3°C° 0 mm 1 mps 635 mmHg 95%
    Show more